Regional Weather Roundup
Issued by NWS

Home | Current Version | Previous Version | Graphics & Text | Print | Product List | Glossary On
Versions: 1 2 3 4 5 6 7 8 9 10 11 12 13 14 15 16 17 18 19 20 21 22 23 24 25 26 27 28 29 30 31 32 33 34 35 36 37 38 39 40 41 42 43 44 45 46 47 48 49 50
000
ASUS43 KFSD 240802
RWRSD

WEATHER ROUNDUP FOR SOUTH DAKOTA
NATIONAL WEATHER SERVICE SIOUX FALLS SD
300 AM CDT THU AUG 24 2017

NOTE: "FAIR" INDICATES FEW OR NO CLOUDS BELOW 12,000 FEET WITH NO
SIGNIFICANT WEATHER AND/OR OBSTRUCTIONS TO VISIBILITY.


SDZ001>005-009-010-012>017-240900-
NORTHWEST AND NORTH CENTRAL SOUTH DAKOTA

CITY           SKY/WX    TMP DP  RH WIND       PRES   REMARKS
BUFFALO          N/A     64  57  78 S5        29.93S
FAITH            N/A     64  60  87 SE10      29.96S
MOBRIDGE       CLEAR     63  59  87 E10       29.93F
$$

SDZ012>016-024>037-041>051-057-063-072>074-240900-
SOUTHWEST AND SOUTH CENTRAL SOUTH DAKOTA

CITY           SKY/WX    TMP DP  RH WIND       PRES   REMARKS
RAPID CTY ARPT CLOUDY    61  54  77 NE7       29.99F
PIERRE         CLEAR     61  59  93 NE9       29.90S
CUSTER         CLOUDY    57  48  72 VRB5      30.12S
ELLSWORTH AFB  CLOUDY    68  56  66 CALM      29.99F
PHILIP         PTCLDY    60  59  96 CALM      29.94S
PINE RIDGE     MOCLDY    65  61  87 NE8       29.97F
WINNER         FAIR      70  62  76 W9        29.91S
$$

SDZ004>011-016>023-039-040-240900-
NORTHEAST SOUTH DAKOTA

CITY           SKY/WX    TMP DP  RH WIND       PRES   REMARKS
ABERDEEN       CLEAR     60  58  92 E8        29.98S
WATERTOWN      CLEAR     61  59  93 E8        30.00S
BROOKINGS      MOCLDY    63  59  87 SE12      30.00S
SISSETON         N/A     58  55  90 E8        30.04S
$$

SDZ017-020-022-023-036>040-048>070-240900-
SOUTHEAST SOUTH DAKOTA

CITY           SKY/WX    TMP DP  RH WIND       PRES   REMARKS
SIOUX FALLS    CLOUDY    68  60  75 S9        29.98F
HURON          PTCLDY    66  61  84 SE8       29.92S
CHAMBERLAIN    CLEAR     63  62  98 E5        29.88F
MITCHELL       PTCLDY    65  61  87 SE9       29.94R
YANKTON        PTCLDY    64  59  83 SE7       29.95F
$$

ABBREVIATIONS USED IN REMARKS
   TC - TEMPERATURE IN CELSIUS
  WCI - WIND CHILL INDEX
   HX - HEAT INDEX
  VSB - VISIBILITY





USA.gov is the U.S. government's official web portal to all federal, state and local government web resources and services.